Regional Weather Roundup
Issued by NWS Sioux Falls, SD

Home | Current Version | Previous Version | Graphics & Text | Print | Product List | Glossary Off
Versions: 1 2 3 4 5 6 7 8 9 10 11 12 13 14 15 16 17 18 19 20 21 22 23 24 25 26 27 28 29 30 31 32 33 34 35 36 37 38 39 40 41 42 43 44 45 46 47 48 49 50

000
ASUS43 KFSD 280010
RWRFSD

WEATHER ROUNDUP FOR SE SOUTH DAKOTA/SW MINNESOTA/NW IOWA
NATIONAL WEATHER SERVICE SIOUX FALLS SD
700 PM CDT MON MAR 27 2017

NOTE: "FAIR" INDICATES FEW OR NO CLOUDS BELOW 12,000 FEET WITH NO
SIGNIFICANT WEATHER AND OR OBSTRUCTIONS TO VISIBILITY.


SDZ038>040-050-052>070-280100-
SOUTHEAST SOUTH DAKOTA

CITY           SKY/WX    TMP DP  RH WIND       PRES   REMARKS
BROOKINGS      CLEAR     54  35  48 E7        29.94
CHAMBERLAIN    NOT AVBL
HURON          CLOUDY    58  35  42 E6        29.92R
6HR MIN TEMP:  54; 6HR MAX TEMP:  61;

MADISON        MOCLDY    55  36  47 S3        29.94R
MITCHELL       CLEAR     60  34  37 S5        29.92S
6HR MIN TEMP:  53; 6HR MAX TEMP:  61;

SIOUX FALLS    MOCLDY    55  40  56 SE9       29.94R
6HR MIN TEMP:  54; 6HR MAX TEMP:  60;

WINNER         CLOUDY    61  38  42 E7        29.87R
YANKTON        CLEAR     55  37  50 SE7       29.93R
$$

MNZ071-072-080-081-089-090-097-098-280100-
SOUTHWEST MINNESOTA

CITY           SKY/WX    TMP DP  RH WIND       PRES   REMARKS
FAIRMONT       PTCLDY    50  41  71 NE5       29.97R
JACKSON        PTCLDY    50  37  62 NE6       29.97R
MARSHALL       CLOUDY    55  37  50 CALM      29.96R
6HR MIN TEMP:  50; 6HR MAX TEMP:  56;

MONTEVIDEO     CLEAR     57  37  47 CALM      29.98R
PIPESTONE      CLEAR     55  34  44 E6        29.94R
REDWOOD FALLS  CLEAR     57  34  41 MISG      29.95R
TRACY          CLEAR     55  40  56 CALM      29.96R
WINDOM         CLEAR     52  37  58 E3        29.96R
WORTHINGTON    CLEAR     50  39  66 E5        29.97R
$$

IAZ001>003-012>014-020>022-031-032-NEZ013-014-SDZ071-280100-
NORTHWEST IOWA

CITY           SKY/WX    TMP DP  RH WIND       PRES   REMARKS
CHEROKEE       CLOUDY    48  40  73 NE3       29.97R
DENISON        CLOUDY    48  39  71 N5        29.98R
ESTHERVILLE    PTCLDY    47  42  83 NE6       29.96R
LE MARS        CLEAR     50  41  71 E9        29.97S
ORANGE CITY    CLEAR     50  41  71 E3        29.97R
SHELDON        CLEAR     50  39  66 E8        29.95S
SIOUX CITY     CLEAR     55  40  56 E10       29.95R
6HR MIN TEMP:  50; 6HR MAX TEMP:  58;

SPENCER        CLOUDY    49  39  68 N8        29.96R
6HR MIN TEMP:  47; 6HR MAX TEMP:  50;

STORM LAKE     CLOUDY    46  39  76 NE6       29.96R
$$

ABBREVIATIONS USED IN REMARKS
   TC - TEMPERATURE IN CELSIUS
  WCI - WIND CHILL INDEX
   HX - HEAT INDEX
  VSB - VISIBILITY





USA.gov is the U.S. government's official web portal to all federal, state and local government web resources and services.